[[{"header":{"parameterUnit":"m.s-1","parameterCategory":1,"la1":30.2991,"la2":30.254,"lo1":-89.0895,"lo2":-89.0444,"dy":0.0017,"dx":0.0017,"nx":28,"ny":28,"refTime":"2024-05-20T03:00:00:Z","depth":0,"parameterNumber":2,"parameterNumberName":"U-component_of_WINDS"},"data":[0,0,0,0,0,0,0,0,0,0,0,0,0,0,0,0,0,0,0,0,0,0,0,0,0,0,0,0,0,0,0,0,0,0,0,0,0,0,0,0,0,0,0,0,0,0,0,0,0,0,0,0,0,0,0,0,0,0,1.3972,1.3972,0,1.4037,1.4038,1.4038,1.4027,1.4026,1.4025,1.4024,1.409,1.4093,1.4095,0,0,0,0,0,0,0,0,0,0,0,0,0,1.3836,1.3838,1.3972,1.3972,1.3973,1.4037,1.4038,1.4039,1.4027,1.4026,1.4025,1.4023,1.4089,1.4092,1.4096,0,0,0,0,0,0,0,0,0,0,0,0,0,1.3897,1.3839,1.3971,1.3975,1.3976,1.4037,1.4038,1.4039,1.4028,1.4026,1.4024,1.4023,1.4088,1.4092,1.4096,1.4156,0,0,1.4109,1.4111,0,0,0,0,0,0,0,0,1.3894,1.3902,1.3974,1.3975,1.3976,1.4022,1.4014,1.4078,1.4028,1.4008,1.4024,1.4022,1.4069,1.4074,1.409,1.4159,1.4162,1.4109,1.4112,1.4114,1.4115,0,0,0,0,0,0,0,1.389,1.3899,1.3997,1.3975,1.3976,1.3973,1.398,1.4026,1.4047,1.401,1.4009,1.4017,1.4069,1.4086,1.4092,1.4163,1.4109,1.4113,1.4116,1.4117,1.4284,1.4286,0,0,0,0,0,0,1.3884,1.3896,1.3995,1.3999,1.393,1.3977,1.3985,1.4009,1.4047,1.4051,1.4018,1.4016,1.408,1.4087,1.4094,1.4166,1.4114,1.4118,1.412,1.4282,1.4285,1.4287,0,0,0,0,0,0,1.3881,1.3893,1.3993,1.3948,1.396,1.3981,1.4009,1.4011,1.4029,1.4053,1.4057,1.4032,1.4079,1.4088,1.4141,1.4168,1.412,1.4123,1.428,1.4283,1.4286,1.4311,0,0,0,0,0,0,1.3878,1.3892,1.3916,1.3948,1.3962,1.4039,1.4011,1.4014,1.4036,1.4034,1.4067,1.4071,1.4078,1.4135,1.4145,1.4173,1.4127,1.4278,1.4281,1.4285,1.4308,1.4315,1.432,0,0,0,0,0,1.3873,1.392,1.3917,1.3929,1.3992,1.404,1.4048,1.4056,1.4038,1.4062,1.4077,1.407,1.4164,1.414,1.4152,1.4182,1.4276,1.428,1.4285,1.4305,1.4313,1.432,0,0,0,0,0,0,1.389,1.3924,1.3921,1.3981,1.4008,1.4038,1.4068,1.4064,1.4097,1.4093,1.4101,1.4109,1.4162,1.4177,1.415,1.4242,1.4217,1.4224,1.4229,1.4237,1.4243,1.4237,1.413,0,0,0,0,0,1.3901,1.3937,1.3966,1.4015,1.4029,1.4046,1.4068,1.4071,1.4099,1.411,1.413,1.4157,1.4193,1.4216,1.425,1.4311,1.4317,1.4337,1.4343,1.4348,1.4353,1.4385,1.4394,1.4301,1.4301,1.4301,0,0,1.3923,1.3947,1.3969,1.4019,1.4041,1.4078,1.4056,1.4096,1.4124,1.4117,1.4167,1.4183,1.4214,1.427,1.4296,1.4285,1.4381,1.4354,1.4357,1.436,1.4391,1.44,1.4407,1.4304,1.4303,1.4303,0,0,1.3982,1.4005,1.4048,1.407,1.4103,1.4114,1.4124,1.4156,1.4166,1.4217,1.4212,1.4245,1.4306,1.4328,1.4348,1.4416,1.441,1.4427,1.4458,1.4489,1.4497,1.4503,1.4526,1.4535,1.4432,1.4433,1.4433,0,1.4006,1.4062,1.4071,1.4111,1.4133,1.4129,1.4173,1.4194,1.4236,1.425,1.4237,1.4314,1.4335,1.4396,1.4412,1.4429,1.444,1.4422,1.4495,1.4502,1.4508,1.453,1.4539,1.4434,1.4434,1.4434,1.4434,0,1.4089,1.4128,1.4159,1.42,1.4225,1.4267,1.4282,1.4307,1.4308,1.4321,1.4372,1.4397,1.4436,1.4451,1.4453,1.4513,1.4504,1.4493,1.4469,1.4518,1.4539,1.4548,1.4437,1.4436,1.4436,1.4435,0,0,1.4159,1.4205,1.4216,1.4234,1.427,1.43,1.4342,1.4381,1.4401,1.4431,1.4465,1.4517,1.4507,1.4529,1.4534,1.4561,1.4612,1.4547,1.4548,1.4557,1.4678,1.4685,1.4694,1.4609,1.4611,1.4612,1.4675,0,1.4221,1.4295,1.4304,1.4369,1.4405,1.4402,1.4438,1.4464,1.4477,1.4509,1.4523,1.456,1.4544,1.4557,1.4585,1.46,1.4636,1.4596,1.464,1.4642,1.4631,1.4705,1.4713,1.4771,1.4683,1.4684,1.4686,0,1.4302,1.4334,1.4403,1.4434,1.4449,1.4482,1.4517,1.4548,1.4577,1.4585,1.461,1.4611,1.4653,1.4629,1.4687,1.4659,1.4678,1.4688,1.4691,1.4694,1.4665,1.4709,1.4789,1.4797,1.4699,1.4698,1.4697,0,1.4345,1.4405,1.4454,1.447,1.4508,1.4531,1.4547,1.4575,1.4597,1.4628,1.4643,1.4679,1.4698,1.4725,1.4736,1.4717,1.4793,1.4769,1.4799,1.4799,1.4814,1.4812,1.4897,1.4829,1.4829,1.4829,1.4828,0,1.4412,1.4453,1.4474,1.4504,1.455,1.4561,1.4606,1.4622,1.4647,1.4679,1.4679,1.471,1.4723,1.4755,1.4764,1.481,1.4819,1.4825,1.4827,1.4824,1.4823,1.4835,1.4831,1.4831,1.483,1.483,1.483,0,1.4466,1.4482,1.4534,1.4566,1.4575,1.4608,1.4635,1.4663,1.4677,1.4718,1.4728,1.4748,1.4786,1.48,1.4846,1.4852,1.4905,1.4904,1.4895,1.4895,1.4924,1.492,1.5017,1.503,1.4955,1.4956,1.4957,0,1.4507,1.4539,1.4574,1.4596,1.4614,1.4649,1.4672,1.4684,1.4707,1.4743,1.4767,1.4805,1.4836,1.4897,1.4915,1.4951,1.4949,1.4981,1.4955,1.4951,1.4948,1.4945,1.4948,1.4985,1.4986,1.4987,1.4987,0,1.4577,1.4583,1.4616,1.4652,1.468,1.4708,1.4736,1.4754,1.477,1.4796,1.4835,1.4859,1.4907,1.4944,1.498,1.4997,1.4994,1.4996,1.5004,1.5001,1.4994,1.4997,1.4907,1.4993,1.4992,1.4992,1.4992,1.4992,1.4625,1.4653,1.4682,1.4719,1.4741,1.4767,1.4796,1.4813,1.4845,1.4885,1.489,1.4932,1.496,1.5008,1.5027,1.5059,1.505,1.5063,1.5066,1.5068,1.507,1.4991,1.5066,1.5066,1.5066,1.5066,1.5065,0,1.4693,1.4712,1.4746,1.4785,1.4814,1.4811,1.4841,1.4865,1.4902,1.4929,1.496,1.5004,1.504,1.5062,1.5098,1.512,1.512,1.5129,1.5127,1.513,1.5076,1.5064,1.5129,1.5129,1.5129,1.5129,1.5129,1.5128,1.4732,1.4779,1.4789,1.4847,1.4866,1.4907,1.4925,1.4948,1.497,1.502,1.505,1.5064,1.5089,1.5127,1.516,1.5165,1.5178,1.5188,1.5192,1.5141,1.5134,1.5128,1.5117,1.5191,1.5191,1.5243,1.5244,1.5244]},{"header":{"parameterUnit":"m.s-1","parameterCategory":1,"la1":30.2991,"la2":30.254,"lo1":-89.0895,"lo2":-89.0444,"dy":0.0017,"dx":0.0017,"nx":28,"ny":28,"refTime":"2024-05-20T03:00:00:Z","depth":0,"parameterNumber":3,"parameterNumberName":"V-component_of_WINDS"},"data":[0,0,0,0,0,0,0,0,0,0,0,0,0,0,0,0,0,0,0,0,0,0,0,0,0,0,0,0,0,0,0,0,0,0,0,0,0,0,0,0,0,0,0,0,0,0,0,0,0,0,0,0,0,0,0,0,0,0,0.7187,0.7186,0,0.7088,0.7086,0.7085,0.6997,0.6996,0.6995,0.6994,0.6889,0.6887,0.6885,0,0,0,0,0,0,0,0,0,0,0,0,0,0.7298,0.7297,0.7188,0.7186,0.7185,0.7088,0.7086,0.7085,0.6997,0.6995,0.6994,0.6993,0.6889,0.6887,0.6885,0,0,0,0,0,0,0,0,0,0,0,0,0,0.723,0.7296,0.7188,0.7129,0.7123,0.7088,0.7086,0.7085,0.6997,0.6995,0.6994,0.6992,0.689,0.6887,0.6885,0.6899,0,0,0.6876,0.6875,0,0,0,0,0,0,0,0,0.7234,0.7226,0.7139,0.7133,0.7126,0.7053,0.7087,0.7022,0.6997,0.7045,0.6994,0.6992,0.6945,0.6937,0.6922,0.6894,0.6889,0.6876,0.6874,0.6873,0.6872,0,0,0,0,0,0,0,0.7239,0.7229,0.7148,0.7138,0.713,0.7107,0.7095,0.7074,0.7004,0.7041,0.7034,0.7023,0.6941,0.6925,0.6919,0.6888,0.6876,0.6874,0.6872,0.6871,0.6864,0.6865,0,0,0,0,0,0,0.7253,0.7234,0.7151,0.7145,0.7177,0.7106,0.7093,0.7078,0.7004,0.6992,0.7025,0.702,0.693,0.6922,0.6915,0.6925,0.6873,0.6871,0.6869,0.6862,0.6864,0.6866,0,0,0,0,0,0,0.7255,0.7246,0.7155,0.7188,0.7174,0.7106,0.7089,0.7077,0.7061,0.6993,0.6979,0.7022,0.6929,0.6918,0.6903,0.692,0.6869,0.6867,0.6861,0.6863,0.6865,0.6947,0,0,0,0,0,0,0.7259,0.7248,0.7253,0.7188,0.7173,0.7147,0.7091,0.7076,0.7057,0.7049,0.6986,0.6974,0.6927,0.6908,0.69,0.6915,0.6865,0.6859,0.6862,0.6864,0.6942,0.6951,0.6959,0,0,0,0,0,0.7263,0.728,0.7254,0.7245,0.7179,0.7148,0.7139,0.7085,0.7058,0.7063,0.7019,0.6976,0.6919,0.6907,0.6898,0.6912,0.6858,0.6861,0.6864,0.6938,0.695,0.6959,0,0,0,0,0,0,0.7349,0.7271,0.7241,0.7238,0.72,0.7133,0.7137,0.7098,0.7067,0.7061,0.6994,0.698,0.6972,0.694,0.6928,0.6921,0.6883,0.6884,0.6942,0.6952,0.6961,0.6968,0.6863,0,0,0,0,0,0.7367,0.735,0.7282,0.7285,0.7268,0.7206,0.7191,0.7152,0.711,0.7094,0.7048,0.7009,0.6981,0.6965,0.6936,0.6937,0.6921,0.6942,0.6951,0.6958,0.696,0.6956,0.6965,0.6876,0.6876,0.6876,0,0,0.7405,0.736,0.7353,0.7301,0.7268,0.725,0.7193,0.7177,0.7163,0.7091,0.7073,0.7039,0.6989,0.6982,0.6976,0.6955,0.6981,0.6962,0.6969,0.6967,0.6961,0.6969,0.6977,0.6879,0.6878,0.6878,0,0,0.7465,0.743,0.7428,0.7396,0.7345,0.7304,0.7303,0.7242,0.7216,0.7198,0.7143,0.7124,0.7079,0.7046,0.7023,0.7069,0.7028,0.7061,0.7106,0.7103,0.711,0.7116,0.7131,0.7137,0.7063,0.7064,0.7064,0,0.7518,0.749,0.7432,0.7419,0.7397,0.7331,0.7328,0.7299,0.7242,0.7228,0.7205,0.7146,0.7109,0.7092,0.7103,0.7087,0.7083,0.7068,0.7114,0.7119,0.7123,0.7137,0.7143,0.7068,0.7067,0.7067,0.7067,0,0.7557,0.7539,0.7543,0.749,0.7468,0.7461,0.74,0.7385,0.7348,0.7308,0.7289,0.7241,0.7201,0.7194,0.7158,0.7171,0.716,0.7126,0.7086,0.7137,0.7149,0.7153,0.7074,0.7073,0.7071,0.707,0,0,0.7669,0.7583,0.7586,0.756,0.7499,0.7483,0.7471,0.7432,0.742,0.7382,0.737,0.7333,0.7301,0.7275,0.7234,0.7232,0.7269,0.7198,0.7196,0.7212,0.7279,0.7305,0.7312,0.7242,0.7242,0.7243,0.7283,0,0.7719,0.7695,0.7641,0.7634,0.7614,0.7551,0.754,0.7501,0.7463,0.744,0.7397,0.7372,0.7333,0.7316,0.7311,0.7266,0.7281,0.7262,0.7228,0.7227,0.7242,0.7318,0.7345,0.7385,0.7287,0.7288,0.7289,0,0.7773,0.774,0.773,0.7669,0.7659,0.7651,0.761,0.7589,0.7543,0.7515,0.7486,0.744,0.7422,0.7386,0.736,0.7348,0.733,0.7306,0.7306,0.73,0.7261,0.7314,0.7397,0.7403,0.7295,0.7295,0.7294,0,0.7855,0.7807,0.7795,0.7775,0.7703,0.7699,0.7668,0.762,0.76,0.7564,0.7549,0.7512,0.7491,0.7462,0.7407,0.7385,0.7386,0.7345,0.7361,0.7363,0.7364,0.7365,0.7445,0.7354,0.7354,0.7354,0.7354,0,0.7915,0.7912,0.783,0.7823,0.7816,0.7754,0.7749,0.7712,0.767,0.7653,0.7595,0.758,0.7508,0.7485,0.7441,0.7425,0.7416,0.7392,0.7381,0.7397,0.74,0.7385,0.738,0.7356,0.7355,0.7355,0.7355,0,0.8006,0.7951,0.7933,0.7867,0.785,0.7848,0.779,0.7779,0.7737,0.7716,0.7708,0.7642,0.7611,0.7553,0.7505,0.7476,0.7469,0.7449,0.7485,0.7478,0.7497,0.7496,0.757,0.7576,0.7482,0.7483,0.7484,0,0.8048,0.8043,0.7976,0.7961,0.7933,0.7909,0.7888,0.7826,0.7806,0.7751,0.7747,0.7712,0.768,0.7633,0.758,0.7542,0.7521,0.7549,0.7515,0.7531,0.752,0.7521,0.752,0.7557,0.7559,0.756,0.7561,0,0.8128,0.8101,0.8073,0.8035,0.8011,0.7979,0.7942,0.7933,0.7862,0.7842,0.781,0.7786,0.7737,0.7701,0.7656,0.7623,0.758,0.7572,0.7573,0.759,0.7611,0.7599,0.7506,0.757,0.7569,0.7569,0.7568,0.7568,0.8195,0.8187,0.8139,0.8109,0.8075,0.8042,0.8029,0.7985,0.7957,0.7913,0.7878,0.7848,0.7799,0.7734,0.7703,0.7678,0.7658,0.766,0.7661,0.7662,0.7669,0.7615,0.767,0.7669,0.7669,0.7669,0.7668,0,0.8271,0.8236,0.821,0.8161,0.8137,0.8099,0.8056,0.8039,0.8013,0.7972,0.7942,0.7904,0.7869,0.7813,0.7773,0.7763,0.7742,0.7755,0.7755,0.7748,0.769,0.7692,0.7773,0.7773,0.7773,0.7773,0.7773,0.7772,0.8308,0.8294,0.826,0.8227,0.8192,0.8163,0.8142,0.8111,0.8077,0.8038,0.8008,0.7972,0.7924,0.788,0.7846,0.783,0.7818,0.7837,0.7815,0.7762,0.7752,0.7743,0.7744,0.7835,0.7835,0.7874,0.7874,0.7875]}]]